Showing default

ORBCOMM FM 14, 25419

Orbit data source: Space-Track

ORBCOMM FM 14, 25419 is a payload satellite owned by Orbcomm (US) in LEO that was launched on Sun, 02 Aug 1998 UTC via a PEGASUS XL/HAPS launch vehicle from the Pegasus Launch, Eastern Range Air Space (ERAS). Payload-class satellites include a variety of spacecraft equipped with specific instruments for various scientific and technological missions. These include communications satellites like Starlink; space stations such as the ISS; scientific satellites like the Hubble; Earth observation satellites from companies like Planet Labs, Umbra, and HawkEye 360; GPS; miniature CubeSats for education and research; and military/defense satellites.

Loading next visibility...
Identifier
25419, 1998-046G
Orbit
LEO
Last TLE update
9 hours ago
Origin
Manufacturer
OSC-Germantown
Mission
Non-operational Commercial Communications
Bus & Motor
MICROSTAR, Unknown motor
Mass
42 kg wet, 42 kg dry
Launch date (UTC)
1998-08-02 (27 years ago)
Launch vehicle
PEGASUS XL/HAPS
Launch site
Pegasus Launch, Eastern Range Air Space (ERAS)
Object type
Payload
Rocket body
Debris
Shape & HBR
Cyl + 2 Pan, 4.3 m
Radar Cross Section
1.484 m², Medium (>0.1 m² and < 1m²)

Expand to show TLE details & history

TLE from 9 hours ago
0 ORBCOMM FM 14
1 25419U 98046G   25128.87957262  .00001483  00000-0  52363-3 0  9990
2 25419  44.9976   2.8712 0003217  82.6470 277.4744 14.38816751398551
Epoch: 2025-05-08T21:06Z
Definitive object data (Epoch: 2025-05-08T21:06:35.074Z)
Latitude
-0.00001°
Longitude
179.28131°
Altitude
762.111 km
Speed
7.475 km/s
True Right ascension
00h 11m 29s
True Declination
0° 00' 00"
Sunlit
Object was in daylight at TLE epoch
Visualization TLE readout
Latitude
36.64396°
Longitude
-134.69289°
Altitude
762.408 km
Speed
7.479 km/s
Apparent Right ascension
02h 36m 42s
Apparent Declination
0° 55' 53"
Sunlit
Object is in daylight
Visualization observer readout
Local Sidereal Time
13:51:06
Azimuth
342.874° N
Elevation
-47.844°
Doppler factor
1
Orbital elements
Apogee altitude
766.255 km
Perigee altitude
761.66 km
Semi-major axis
7,142.095 km
Eccentricity
0.0003217
Inclination
44.9976°
RAAN
2.8712°
Arg. of periapsis
82.647°
True anomaly
277.43785°
Mean anomaly
277.4744°
Eccentric anomaly
277.45612°
Mean motion
3.59588 °/min
BSTAR
0.00052363
Orbital period
100.11 mins
Loading maneuver chart data...
Loading SW <> Apogee altitude chart data...

ORBCOMM FM 14 Visibility forecast

Observer location: undefined°, undefined°

Span
Click to sort rows by Start time (UTC) header in descending order
Start Az.
Max El. time (UTC)
Max El. Az.
Max El.
End time (UTC)
End Az.
6 mins2025-05-09 17:15:23.711Z175.249° S2025-05-09 17:18:23.711Z139.198° SSE17.26°2025-05-09 17:21:23.711Z100.821° ESE
9 mins2025-05-09 18:59:23.711Z231.655° WSW2025-05-09 19:03:23.711Z130.766° SE43.085°2025-05-09 19:08:23.711Z68.911° E
9 mins2025-05-09 20:44:23.711Z276.138° WNW2025-05-09 20:48:23.711Z345.072° N38.929°2025-05-09 20:53:23.711Z66.917° ENE
9 mins2025-05-09 22:30:23.711Z297.235° NW2025-05-09 22:34:23.711Z18.001° NNE38.975°2025-05-09 22:39:23.711Z87.873° E
9 mins2025-05-10 00:15:23.711Z289.277° WNW2025-05-10 00:19:23.711Z222.917° SW43.02°2025-05-10 00:24:23.711Z126.998° SE
5 mins2025-05-10 02:02:23.711Z247.158° WSW2025-05-10 02:04:23.711Z219.876° SW16.918°2025-05-10 02:07:23.711Z184.566° SSW
|